When you browse on this site, cookies collect data to enhance your experience and personalize the content and advertising you see.
Visit our Privacy Policy to learn more. By continuing to use the site, you agree to this use of cookies and data.
  • In Hungary
  • List of Countries
  • For 7 days
  • Water Temperature
  • Weather Map
  • News
  • Weather Widgets
  • user-avatar
    Login

    Hourly Weather Saveevo

    Today, 22 January, Wednesday

    Time Temperature Precipitation Wind Pressure Humidity
    00:00 +1°C° 0 mm 6 mps 738 mmHg 85%
    01:00 -1°C° 0 mm 6 mps 738 mmHg 85%
    02:00 -1°C° 0 mm 5 mps 738 mmHg 85%
    03:00 -1°C° 0 mm 5 mps 737 mmHg 83%
    04:00 -1°C° 0 mm 5 mps 737 mmHg 81%
    05:00 -2°C° 0 mm 5 mps 736 mmHg 79%
    06:00 -2°C° 0 mm 5 mps 735 mmHg 81%
    07:00 -2°C° 0 mm 4 mps 735 mmHg 83%
    08:00 -2°C° 0 mm 4 mps 734 mmHg 86%
    09:00 -2°C° 0 mm 4 mps 734 mmHg 86%
    10:00 -1°C° 0 mm 4 mps 733 mmHg 86%
    11:00 -1°C° 0 mm 5 mps 732 mmHg 86%
    12:00 -1°C° 0 mm 5 mps 732 mmHg 86%
    13:00 -1°C° 0 mm 6 mps 732 mmHg 85%
    14:00 -1°C° 0 mm 6 mps 731 mmHg 84%
    15:00 -2°C° 0.1 mm 6 mps 731 mmHg 83%
    16:00 -2°C° 0.1 mm 5 mps 731 mmHg 83%
    17:00 -2°C° 0.1 mm 5 mps 731 mmHg 82%
    18:00 -4°C° 0 mm 5 mps 732 mmHg 81%
    19:00 -4°C° 0 mm 5 mps 733 mmHg 79%
    20:00 -5°C° 0 mm 5 mps 734 mmHg 78%
    21:00 -5°C° 0 mm 5 mps 734 mmHg 78%
    22:00 -5°C° 0 mm 5 mps 734 mmHg 79%
    23:00 -5°C° 0 mm 6 mps 735 mmHg 79%

    Tomorrow, 23 January, Thursday

    Time Temperature Precipitation Wind Pressure Humidity
    00:00 -5°C° 0 mm 6 mps 735 mmHg 79%
    01:00 -5°C° 0 mm 6 mps 736 mmHg 80%
    02:00 -5°C° 0 mm 6 mps 737 mmHg 80%
    03:00 -5°C° 0 mm 6 mps 737 mmHg 77%
    04:00 -7°C° 0 mm 7 mps 737 mmHg 74%
    05:00 -7°C° 0 mm 7 mps 737 mmHg 72%
    06:00 -7°C° 0 mm 7 mps 738 mmHg 69%
    07:00 -8°C° 0 mm 7 mps 739 mmHg 66%
    08:00 -8°C° 0 mm 7 mps 740 mmHg 64%
    09:00 -8°C° 0 mm 6 mps 741 mmHg 61%
    10:00 -6°C° 0 mm 6 mps 741 mmHg 58%
    11:00 -6°C° 0 mm 6 mps 742 mmHg 55%
    12:00 -6°C° 0 mm 6 mps 742 mmHg 55%
    13:00 -5°C° 0 mm 6 mps 742 mmHg 54%
    14:00 -5°C° 0 mm 6 mps 743 mmHg 54%
    15:00 -5°C° 0 mm 6 mps 743 mmHg 56%
    16:00 -5°C° 0 mm 5 mps 743 mmHg 58%
    17:00 -6°C° 0 mm 5 mps 743 mmHg 60%
    18:00 -6°C° 0 mm 5 mps 743 mmHg 64%
    19:00 -5°C° 0 mm 4 mps 743 mmHg 69%
    20:00 -5°C° 0 mm 4 mps 743 mmHg 73%
    21:00 -5°C° 0 mm 4 mps 744 mmHg 75%
    22:00 -5°C° 0 mm 4 mps 744 mmHg 76%
    23:00 -5°C° 0 mm 3 mps 744 mmHg 78%

    Day after tomorrow, 24 January, Friday

    Time Temperature Precipitation Wind Pressure Humidity
    00:00 -5°C° 0 mm 3 mps 744 mmHg 81%
    01:00 -5°C° 0 mm 3 mps 744 mmHg 84%
    02:00 -5°C° 0 mm 3 mps 744 mmHg 86%
    03:00 -5°C° 0 mm 3 mps 743 mmHg 88%
    04:00 -4°C° 0 mm 3 mps 742 mmHg 89%
    05:00 -4°C° 0 mm 4 mps 742 mmHg 90%
    06:00 -4°C° 0.1 mm 4 mps 741 mmHg 91%
    07:00 -4°C° 0.1 mm 4 mps 741 mmHg 92%
    08:00 -5°C° 0.1 mm 5 mps 741 mmHg 93%
    09:00 -4°C° 0.3 mm 5 mps 740 mmHg 93%
    10:00 -4°C° 0.3 mm 5 mps 740 mmHg 93%
    11:00 -4°C° 0.3 mm 5 mps 739 mmHg 93%
    12:00 -2°C° 0.1 mm 5 mps 739 mmHg 94%
    13:00 -1°C° 0.1 mm 5 mps 738 mmHg 94%
    14:00 0°C° 0.1 mm 5 mps 738 mmHg 95%
    15:00 +1°C° 0.1 mm 5 mps 738 mmHg 94%
    16:00 +1°C° 0.1 mm 6 mps 737 mmHg 94%
    17:00 +1°C° 0.1 mm 6 mps 737 mmHg 93%
    18:00 +1°C° 0 mm 6 mps 737 mmHg 93%
    19:00 +1°C° 0 mm 6 mps 738 mmHg 93%
    20:00 +1°C° 0 mm 5 mps 738 mmHg 93%
    21:00 +1°C° 0 mm 5 mps 738 mmHg 93%
    22:00 +1°C° 0 mm 5 mps 737 mmHg 93%
    23:00 +1°C° 0 mm 5 mps 737 mmHg 94%

    25 January, Saturday

    Time Temperature Precipitation Wind Pressure Humidity
    00:00 +1°C° 0.2 mm 5 mps 737 mmHg 94%
    01:00 0°C° 0.2 mm 5 mps 737 mmHg 95%
    02:00 0°C° 0.2 mm 5 mps 736 mmHg 95%
    03:00 +1°C° 0.4 mm 5 mps 736 mmHg 95%
    04:00 +1°C° 0.4 mm 5 mps 735 mmHg 95%
    05:00 +1°C° 0.4 mm 5 mps 735 mmHg 96%
    06:00 +1°C° 0.2 mm 5 mps 735 mmHg 95%
    07:00 +1°C° 0.2 mm 5 mps 735 mmHg 95%
    08:00 +1°C° 0.2 mm 5 mps 735 mmHg 94%
    09:00 +1°C° 0.1 mm 5 mps 735 mmHg 94%
    10:00 +1°C° 0.1 mm 5 mps 735 mmHg 94%
    11:00 +1°C° 0.1 mm 5 mps 735 mmHg 93%
    12:00 +1°C° 0.2 mm 6 mps 735 mmHg 92%
    13:00 -1°C° 0.2 mm 6 mps 735 mmHg 90%
    14:00 -1°C° 0.2 mm 6 mps 735 mmHg 88%
    15:00 -1°C° 0 mm 6 mps 735 mmHg 85%
    16:00 -1°C° 0 mm 6 mps 735 mmHg 83%
    17:00 -2°C° 0 mm 6 mps 735 mmHg 80%
    18:00 -2°C° 0 mm 6 mps 736 mmHg 80%
    19:00 -2°C° 0 mm 6 mps 736 mmHg 80%
    20:00 -3°C° 0 mm 6 mps 736 mmHg 80%
    21:00 -3°C° 0.1 mm 6 mps 737 mmHg 81%
    22:00 -3°C° 0.1 mm 6 mps 737 mmHg 81%
    23:00 -3°C° 0.1 mm 6 mps 738 mmHg 82%

    26 January, Sunday

    Time Temperature Precipitation Wind Pressure Humidity
    00:00 -2°C° 0 mm 5 mps 739 mmHg 80%
    01:00 -4°C° 0 mm 5 mps 739 mmHg 78%
    02:00 -5°C° 0 mm 5 mps 740 mmHg 76%
    03:00 -5°C° 0 mm 5 mps 740 mmHg 76%
    04:00 -5°C° 0 mm 5 mps 741 mmHg 76%
    05:00 -4°C° 0 mm 4 mps 742 mmHg 75%
    06:00 -4°C° 0 mm 4 mps 742 mmHg 76%
    07:00 -4°C° 0 mm 4 mps 743 mmHg 77%
    08:00 -4°C° 0 mm 4 mps 743 mmHg 77%
    09:00 -4°C° 0 mm 4 mps 744 mmHg 76%
    10:00 -3°C° 0 mm 4 mps 745 mmHg 74%
    11:00 -3°C° 0 mm 4 mps 745 mmHg 72%
    12:00 -2°C° 0 mm 4 mps 745 mmHg 71%
    13:00 -1°C° 0 mm 3 mps 746 mmHg 70%
    14:00 -1°C° 0 mm 3 mps 746 mmHg 70%
    15:00 -1°C° 0 mm 2 mps 746 mmHg 74%
    16:00 -2°C° 0 mm 2 mps 746 mmHg 78%
    17:00 -3°C° 0 mm 2 mps 747 mmHg 83%
    18:00 -3°C° 0 mm 2 mps 747 mmHg 83%
    19:00 -3°C° 0 mm 2 mps 747 mmHg 84%
    20:00 -3°C° 0 mm 2 mps 747 mmHg 84%
    21:00 -3°C° 0 mm 2 mps 747 mmHg 84%
    22:00 -2°C° 0 mm 2 mps 747 mmHg 84%
    23:00 -2°C° 0 mm 2 mps 747 mmHg 83%

    27 January, Monday

    Time Temperature Precipitation Wind Pressure Humidity
    00:00 -2°C° 0 mm 2 mps 747 mmHg 85%
    01:00 -2°C° 0 mm 3 mps 747 mmHg 87%
    02:00 -2°C° 0 mm 3 mps 747 mmHg 89%
    03:00 -2°C° 0 mm 3 mps 747 mmHg 91%
    04:00 -2°C° 0 mm 3 mps 746 mmHg 92%
    05:00 -2°C° 0 mm 3 mps 746 mmHg 94%
    06:00 -2°C° 0 mm 3 mps 746 mmHg 94%
    07:00 -2°C° 0 mm 3 mps 746 mmHg 93%
    08:00 -2°C° 0 mm 3 mps 746 mmHg 93%
    09:00 -3°C° 0 mm 4 mps 746 mmHg 91%
    10:00 -2°C° 0 mm 4 mps 746 mmHg 89%
    11:00 -2°C° 0 mm 4 mps 745 mmHg 87%
    12:00 -2°C° 0 mm 4 mps 745 mmHg 89%
    13:00 -2°C° 0 mm 4 mps 744 mmHg 91%
    14:00 -2°C° 0 mm 4 mps 744 mmHg 92%
    15:00 -2°C° 0.1 mm 4 mps 744 mmHg 94%
    16:00 -1°C° 0.1 mm 3 mps 743 mmHg 96%
    17:00 -1°C° 0.1 mm 3 mps 743 mmHg 97%
    18:00 -1°C° 0 mm 4 mps 743 mmHg 97%
    19:00 -1°C° 0 mm 4 mps 743 mmHg 97%
    20:00 -1°C° 0 mm 4 mps 743 mmHg 96%
    21:00 -1°C° 0 mm 4 mps 743 mmHg 95%
    22:00 -1°C° 0 mm 4 mps 743 mmHg 94%
    23:00 -2°C° 0 mm 4 mps 743 mmHg 93%
    Show more